• MPC Preparation (Info)

  • MPEC 2001-Y09 : 2001 XX103

    The following Minor Planet Electronic Circular may be linked-to from your own Web pages, but must not otherwise be redistributed electronically.

    A form allowing access to any MPEC is at the bottom of this page.


    Read MPEC 2001-Y08 Read MPEC 2001-Y10


    M.P.E.C. 2001-Y09                                Issued 2001 Dec. 18, 17:44 UT
    
         The Minor Planet Electronic Circulars contain information on unusual
             minor planets and routine data on comets.  They are published
       on behalf of Commission 20 of the International Astronomical Union by the
              Minor Planet Center, Smithsonian Astrophysical Observatory,
                              Cambridge, MA 02138, U.S.A.
    
                 Prepared using the Tamkin Foundation Computer Network
    
                                  MPC@CFA.HARVARD.EDU
              URL http://cfa-www.harvard.edu/iau/mpc.html  ISSN 1523-6714
    
                                      2001 XX103
    
    Observations:
         K01XA3X* C2001 12 15.23435 04 59 02.99 +28 12 24.5          17.5        704
         K01XA3X  C2001 12 15.24946 04 58 56.62 +28 14 45.1          17.8        704
         K01XA3X  C2001 12 15.26456 04 58 50.20 +28 17 06.3          18.2        704
         K01XA3X  C2001 12 15.27966 04 58 43.73 +28 19 27.3          17.8        704
         K01XA3X  C2001 12 15.29477 04 58 37.26 +28 21 48.5          18.2        704
         K01XA3X  C2001 12 17.21670 04 39 52.69 +35 39 26.5          17.7        704
         K01XA3X  C2001 12 17.23224 04 39 36.67 +35 44 35.5          17.9        704
         K01XA3X  C2001 12 17.24751 04 39 20.78 +35 49 40.3          18.6        704
         K01XA3X  C2001 12 17.26260 04 39 05.02 +35 54 41.7          17.7        704
         K01XA3X  C2001 12 17.27770 04 38 49.14 +35 59 44.5          17.7        704
         K01XA3X  C2001 12 18.01270 04 23 32.59 +40 53 49.1                      620
         K01XA3X  C2001 12 18.01529 04 23 28.16 +40 55 01.3                      620
         K01XA3X  C2001 12 18.01917 04 23 21.65 +40 56 49.9                      620
         K01XA3X  C2001 12 18.01964 04 23 20.90 +40 57 01.8                      620
         K01XA3X  C2001 12 18.16679 04 19 24.29 +42 10 10.1                      739
         K01XA3X  C2001 12 18.16899 04 19 20.13 +42 11 18.2                      739
         K01XA3X  C2001 12 18.17119 04 19 15.81 +42 12 26.7                      739
         K01XA3X  C2001 12 18.17339 04 19 11.62 +42 13 34.1                      739
         K01XA3X  C2001 12 18.59940 04 03 26.83 +46 17 45.9          16.5 V      900
         K01XA3X  C2001 12 18.60169 04 03 20.37 +46 19 12.5                      900
    
    Observer details:
    620 Observatorio Astronomico de Mallorca.  Observer S. Sanchez.  0.30-m f/3.3
        Schmidt-Cassegrain + CCD.
    704 Lincoln Laboratory ETS, New Mexico.  Observers M. Blythe, F. Shelly,
        M. Bezpalko, R. Huber, L. Manguso, S. Adams, J. Piscitelli.  Measurers
        J. Stuart, R. Sayer, J. B. Evans, H. Viggh.  1.0-m f/2.15 reflector + CCD.
    739 Sunflower Observatory, Olathe.  Observer L. Robinson.  0.25-m
        Schmidt-Cassegrain + CCD.
    900 Moriyama.  Observer Y. Ikari.  0.25-m f/6.3 reflector + CCD.
    
    Orbital elements:
    2001 XX103
    Epoch 2001 Oct. 18.0 TT = JDT 2452200.5                 MPC
    M 323.61569              (2000.0)            P               Q
    n   0.33672919     Peri.   84.64433     -0.95859584     -0.26423975
    a   2.0462037      Node    80.00206     +0.19930779     -0.88882637
    e   0.6642008      Incl.    6.18873     +0.20339720     -0.37438622
    P   2.93           H   22.9           G   0.15           U   8
    Residuals in seconds of arc
    011215 704  0.2+  0.3-    011217 704 (5.0-  6.5+)   011218 739  0.3-  0.0
    011215 704  0.2+  0.4-    011217 704 (5.0-  6.3+)   011218 739  0.4+  0.1-
    011215 704  0.0   0.1+    011217 704 (4.6-  6.2+)   011218 739  0.4-  0.2+
    011215 704  0.3-  0.3+    011218 620  0.5-  1.2+    011218 739  0.2+  0.7-
    011215 704  0.1-  0.3+    011218 620  0.8-  0.6+    011218 900  0.2+  0.0
    011217 704 (2.7-  5.2+)   011218 620  0.3+  0.0     011218 900  0.1-  0.2+
    011217 704 (4.0-  5.8+)   011218 620  0.9+  1.4-
    
    Ephemeris:
    2001 XX103               a,e,i = 2.05, 0.66, 6                   q = 0.6871
    Date    TT    R. A. (2000) Decl.     Delta      r     Elong.  Phase     V
    2001 12 17.0  04 42.98   +34 31.4    0.043    1.025   163.5    15.8    17.0
    2001 12 17.1  04 41.58   +35 01.8    0.042    1.024   162.9    16.4    16.9
    2001 12 17.2  04 40.10   +35 33.6    0.041    1.023   162.3    17.0    16.9
    2001 12 17.3  04 38.52   +36 06.8    0.040    1.022   161.6    17.7    16.9
    2001 12 17.4  04 36.84   +36 41.5    0.039    1.021   160.9    18.4    16.8
    2001 12 17.5  04 35.06   +37 17.9    0.038    1.020   160.2    19.1    16.8
    2001 12 17.6  04 33.15   +37 56.0    0.037    1.019   159.4    19.9    16.8
    2001 12 17.7  04 31.11   +38 35.9    0.036    1.018   158.6    20.6    16.7
    2001 12 17.8  04 28.92   +39 17.7    0.035    1.017   157.8    21.5    16.7
    2001 12 17.9  04 26.57   +40 01.5    0.034    1.016   156.9    22.3    16.7
    2001 12 18.0  04 24.04   +40 47.6    0.033    1.015   156.0    23.3    16.6
    2001 12 18.1  04 21.31   +41 35.9    0.032    1.014   155.0    24.2    16.6
    2001 12 18.2  04 18.35   +42 26.7    0.032    1.012   154.0    25.3    16.6
    2001 12 18.3  04 15.13   +43 20.0    0.031    1.011   152.9    26.3    16.6
    2001 12 18.4  04 11.62   +44 16.1    0.030    1.010   151.7    27.5    16.5
    2001 12 18.5  04 07.79   +45 15.0    0.029    1.009   150.5    28.7    16.5
    2001 12 18.6  04 03.58   +46 16.8    0.028    1.008   149.2    29.9    16.5
    2001 12 18.7  03 58.95   +47 21.7    0.027    1.007   147.9    31.3    16.4
    2001 12 18.8  03 53.82   +48 29.7    0.027    1.006   146.5    32.7    16.4
    2001 12 18.9  03 48.12   +49 41.0    0.026    1.005   144.9    34.2    16.4
    2001 12 19.0  03 41.76   +50 55.4    0.025    1.004   143.3    35.8    16.4
    2001 12 19.1  03 34.62   +52 13.0    0.024    1.003   141.6    37.5    16.3
    2001 12 19.2  03 26.58   +53 33.5    0.024    1.002   139.8    39.3    16.3
    2001 12 19.3  03 17.47   +54 56.7    0.023    1.001   137.9    41.3    16.3
    2001 12 19.4  03 07.10   +56 22.0    0.022    1.000   135.8    43.3    16.3
    2001 12 19.5  02 55.24   +57 48.6    0.022    0.999   133.7    45.5    16.3
    2001 12 19.6  02 41.62   +59 15.5    0.021    0.998   131.4    47.7    16.3
    2001 12 19.7  02 25.95   +60 41.0    0.020    0.997   128.9    50.2    16.3
    2001 12 19.8  02 07.90   +62 03.2    0.020    0.996   126.4    52.7    16.3
    2001 12 19.9  01 47.16   +63 19.3    0.019    0.995   123.7    55.4    16.3
    2001 12 20.0  01 23.52   +64 26.0    0.019    0.994   120.8    58.2    16.4
    2001 12 20.1  00 56.93   +65 19.3    0.018    0.993   117.9    61.2    16.4
    2001 12 20.2  00 27.64   +65 54.9    0.018    0.992   114.8    64.2    16.5
    2001 12 20.3  23 56.30   +66 08.9    0.018    0.991   111.6    67.4    16.5
    2001 12 20.4  23 23.95   +65 58.2    0.018    0.990   108.4    70.7    16.6
    2001 12 20.5  22 51.83   +65 21.5    0.017    0.988   105.0    74.0    16.7
    2001 12 20.6  22 21.14   +64 19.4    0.017    0.987   101.6    77.4    16.8
    2001 12 20.7  21 52.79   +62 54.2    0.017    0.986    98.1    80.9    16.9
    2001 12 20.8  21 27.28   +61 09.5    0.017    0.985    94.7    84.3    17.0
    2001 12 20.9  21 04.72   +59 09.4    0.017    0.984    91.3    87.7    17.1
    2001 12 21.0  20 45.01   +56 57.9    0.017    0.983    87.9    91.1    17.3
    2001 12 21.1  20 27.87   +54 38.9    0.018    0.982    84.5    94.4    17.5
    2001 12 21.2  20 12.99   +52 15.5    0.018    0.981    81.3    97.7    17.6
    2001 12 21.3  20 00.06   +49 50.6    0.018    0.980    78.2   100.8    17.8
    2001 12 21.4  19 48.78   +47 26.3    0.019    0.979    75.1   103.8    18.0
    2001 12 21.5  19 38.90   +45 04.3    0.019    0.978    72.2   106.7    18.2
    2001 12 21.6  19 30.20   +42 45.9    0.019    0.977    69.5   109.5    18.4
    2001 12 21.7  19 22.51   +40 32.1    0.020    0.976    66.8   112.1    18.6
    2001 12 21.8  19 15.68   +38 23.4    0.021    0.975    64.3   114.6    18.9
    2001 12 21.9  19 09.57   +36 20.3    0.021    0.974    62.0   116.9    19.1
    2001 12 22.0  19 04.09   +34 23.0    0.022    0.973    59.7   119.1    19.3
    2001 12 22.1  18 59.16   +32 31.5    0.022    0.972    57.6   121.2    19.5
    2001 12 22.2  18 54.69   +30 45.8    0.023    0.971    55.7   123.2    19.7
    2001 12 22.3  18 50.62   +29 05.7    0.024    0.970    53.8   125.1    20.0
    2001 12 22.4  18 46.92   +27 31.0    0.024    0.969    52.1   126.8    20.2
    2001 12 22.5  18 43.52   +26 01.5    0.025    0.968    50.4   128.4    20.4
    2001 12 22.6  18 40.41   +24 37.0    0.026    0.967    48.9   130.0    20.6
    2001 12 22.7  18 37.53   +23 17.2    0.027    0.966    47.4   131.4    20.8
    2001 12 22.8  18 34.88   +22 01.8    0.028    0.965    46.1   132.8    21.0
    2001 12 22.9  18 32.42   +20 50.5    0.028    0.964    44.8   134.0    21.2
    2001 12 23.0  18 30.13   +19 43.2    0.029    0.963    43.6   135.2    21.4
    2001 12 23.1  18 28.01   +18 39.5    0.030    0.962    42.4   136.3    21.6
    2001 12 23.2  18 26.02   +17 39.2    0.031    0.961    41.4   137.4    21.8
    2001 12 23.3  18 24.16   +16 42.2    0.032    0.960    40.4   138.4    22.0
    2001 12 23.4  18 22.42   +15 48.1    0.033    0.959    39.4   139.3    22.1
    2001 12 23.5  18 20.78   +14 56.8    0.034    0.958    38.5   140.2    22.3
    2001 12 23.6  18 19.24   +14 08.1    0.034    0.957    37.7   141.1    22.5
    2001 12 23.7  18 17.79   +13 21.9    0.035    0.956    36.9   141.9    22.7
    2001 12 23.8  18 16.42   +12 37.9    0.036    0.954    36.1   142.6    22.8
    2001 12 23.9  18 15.13   +11 56.0    0.037    0.953    35.4   143.3    23.0
    2001 12 24.0  18 13.90   +11 16.2    0.038    0.952    34.7   144.0    23.1
    
    Brian G. Marsden             (C) Copyright 2001 MPC           M.P.E.C. 2001-Y09
    

    Read MPEC 2001-Y08 Read MPEC 2001-Y10


    MPEC number:

    Enter an MPEC number in one of the following forms:

    • 1997-B01 (the full form)
    • J97B01 (the packed version of the full form)
    • B01 (the abbreviated form)